Location: Appletree Creek
(38.7363°N, 122.6833°W)
Time: 09:26:46
(UTC+00:00)

Cosmos 2173 Rocket - Pass Details

Date: 18 September 2020
Orbit: 946 x 999 km, 83.0° (Epoch: 21 October)

Event Time Altitude Azimuth Distance (km) Brightness Sun altitude
Rises 13:11:07 0° 351° (N) 3,699 7.0 -9.4°
Reaches altitude 10° 13:13:38 10° 350° (N) 2,754 6.4 -8.9°
Maximum altitude 13:19:58 78° 266° (W) 1,018 4.0 -7.7°
Drops below altitude 10° 13:26:18 10° 180° (S) 2,758 6.3 -6.5°
Sets 13:28:49 0° 179° (S) 3,705 7.0 -6.0°
